[[{"header":{"parameterUnit":"m.s-1","parameterCategory":1,"la1":30.2991,"la2":30.254,"lo1":-89.0895,"lo2":-89.0444,"dy":0.0017,"dx":0.0017,"nx":28,"ny":28,"refTime":"2025-12-16T03:00:00:Z","depth":0,"parameterNumber":2,"parameterNumberName":"U-component_of_WINDS"},"data":[0,0,0,0,0,0,0,0,0,0,0,0,0,0,0,0,0,0,0,0,0,0,0,0,0,0,0,0,0,0,0,0,0,0,0,0,0,0,0,0,0,0,0,0,0,0,0,0,0,0,0,0,0,0,0,0,0,0,-5.5062,-5.5063,0,-5.5164,-5.5165,-5.5166,-5.5045,-5.5041,-5.5036,-5.5032,-5.5142,-5.5149,-5.5156,0,0,0,0,0,0,0,0,0,0,0,0,0,-5.4767,-5.4773,-5.5061,-5.5063,-5.5064,-5.5164,-5.5165,-5.5167,-5.5046,-5.5041,-5.5035,-5.503,-5.514,-5.5148,-5.5157,0,0,0,0,0,0,0,0,0,0,0,0,0,-5.4885,-5.4775,-5.5061,-5.5016,-5.5013,-5.5164,-5.5165,-5.5167,-5.5047,-5.5041,-5.5034,-5.5027,-5.5137,-5.5147,-5.5158,-5.536,0,0,-5.5191,-5.5195,0,0,0,0,0,0,0,0,-5.4879,-5.4896,-5.5021,-5.5019,-5.5016,-5.5085,-5.5102,-5.5232,-5.5049,-5.5034,-5.5032,-5.5024,-5.5129,-5.514,-5.5174,-5.5365,-5.537,-5.5192,-5.5198,-5.5203,-5.5206,0,0,0,0,0,0,0,-5.487,-5.4891,-5.5102,-5.5023,-5.502,-5.4992,-5.5001,-5.5126,-5.5119,-5.5035,-5.5027,-5.504,-5.5126,-5.5164,-5.5176,-5.5372,-5.5191,-5.5201,-5.5208,-5.5212,-5.5736,-5.5743,0,0,0,0,0,0,-5.4867,-5.4885,-5.5099,-5.5105,-5.4929,-5.5003,-5.5013,-5.507,-5.5117,-5.5117,-5.5046,-5.5034,-5.5149,-5.5164,-5.5179,-5.5419,-5.5203,-5.5213,-5.5219,-5.5728,-5.5737,-5.5745,0,0,0,0,0,0,-5.4861,-5.4887,-5.5095,-5.4993,-5.5017,-5.5015,-5.508,-5.5075,-5.5113,-5.5125,-5.5124,-5.5085,-5.5144,-5.5164,-5.5316,-5.5422,-5.5218,-5.5227,-5.5719,-5.5731,-5.5741,-5.5901,0,0,0,0,0,0,-5.4853,-5.4886,-5.4961,-5.4995,-5.5023,-5.5228,-5.5086,-5.5082,-5.5131,-5.5117,-5.5162,-5.5163,-5.5141,-5.5301,-5.5327,-5.5433,-5.5236,-5.571,-5.5725,-5.5738,-5.5887,-5.5917,-5.5942,0,0,0,0,0,-5.4843,-5.5002,-5.4965,-5.4992,-5.5117,-5.5235,-5.525,-5.522,-5.514,-5.5217,-5.5225,-5.5161,-5.5406,-5.5317,-5.5346,-5.5456,-5.5703,-5.572,-5.5737,-5.5874,-5.5911,-5.5942,0,0,0,0,0,0,-5.4981,-5.5006,-5.4965,-5.514,-5.5186,-5.5214,-5.5309,-5.526,-5.5331,-5.5315,-5.5276,-5.5287,-5.5449,-5.5468,-5.5368,-5.5655,-5.5542,-5.5565,-5.5637,-5.5672,-5.5699,-5.5691,-5.5245,0,0,0,0,0,-5.5032,-5.5124,-5.5141,-5.5294,-5.532,-5.5311,-5.5361,-5.5334,-5.5381,-5.54,-5.5419,-5.5468,-5.5556,-5.5615,-5.5697,-5.589,-5.5898,-5.598,-5.6008,-5.6031,-5.6051,-5.6156,-5.6193,-5.5801,-5.5801,-5.58,0,0,-5.5138,-5.5163,-5.5224,-5.5323,-5.5355,-5.5453,-5.5328,-5.5437,-5.5509,-5.5417,-5.5561,-5.5578,-5.563,-5.5804,-5.5881,-5.5824,-5.6162,-5.6052,-5.607,-5.6078,-5.6177,-5.6214,-5.6247,-5.5812,-5.581,-5.5808,0,0,-5.5381,-5.5409,-5.5539,-5.5575,-5.5625,-5.5619,-5.5651,-5.5687,-5.5694,-5.5837,-5.577,-5.5858,-5.601,-5.6051,-5.6091,-5.6353,-5.6298,-5.6381,-5.6526,-5.6629,-5.666,-5.6687,-5.6781,-5.6815,-5.6402,-5.6402,-5.6402,0,-5.5506,-5.5649,-5.5613,-5.5727,-5.5774,-5.5694,-5.5827,-5.5864,-5.594,-5.5975,-5.591,-5.61,-5.613,-5.6312,-5.6377,-5.6412,-5.6448,-5.6375,-5.6658,-5.6685,-5.671,-5.6799,-5.6834,-5.6412,-5.6411,-5.641,-5.6409,0,-5.5802,-5.5903,-5.6003,-5.6076,-5.6134,-5.6258,-5.6242,-5.6306,-5.6275,-5.6276,-5.6425,-5.6459,-5.6546,-5.6588,-5.6559,-5.6768,-5.6731,-5.6663,-5.6548,-5.6757,-5.684,-5.6874,-5.6426,-5.6422,-5.6419,-5.6417,0,0,-5.6132,-5.6186,-5.6223,-5.6256,-5.6307,-5.6385,-5.6507,-5.6591,-5.6647,-5.6703,-5.6804,-5.6936,-5.6874,-5.692,-5.6896,-5.6986,-5.7192,-5.6907,-5.6908,-5.6959,-5.7425,-5.7475,-5.7515,-5.7157,-5.7163,-5.7168,-5.7421,0,-5.6375,-5.6582,-5.6555,-5.6755,-5.6848,-5.6776,-5.6881,-5.6926,-5.6931,-5.7013,-5.7019,-5.7113,-5.7024,-5.7052,-5.7138,-5.7149,-5.7285,-5.7131,-5.7252,-5.7257,-5.724,-5.7558,-5.7611,-5.7848,-5.7453,-5.7459,-5.7462,0,-5.6686,-5.6752,-5.6961,-5.6999,-5.7037,-5.7132,-5.7208,-5.7287,-5.7337,-5.7335,-5.7388,-5.7348,-5.7472,-5.7356,-5.7527,-5.7422,-5.7471,-5.7484,-5.7493,-5.7502,-5.7371,-5.7576,-5.7922,-5.7958,-5.7513,-5.7509,-5.7506,0,-5.6906,-5.7048,-5.7191,-5.7222,-5.727,-5.7339,-5.7362,-5.7405,-5.7459,-5.7526,-5.7561,-5.7643,-5.7688,-5.7754,-5.7738,-5.7655,-5.7913,-5.7795,-5.7916,-5.7917,-5.7972,-5.7969,-5.8331,-5.8006,-5.8005,-5.8005,-5.8004,0,-5.718,-5.731,-5.729,-5.7378,-5.7524,-5.7493,-5.7638,-5.7653,-5.7692,-5.7784,-5.7727,-5.7815,-5.7789,-5.7876,-5.7865,-5.8009,-5.803,-5.8033,-5.8028,-5.8037,-5.8037,-5.8068,-5.8051,-5.8014,-5.8012,-5.801,-5.8008,0,-5.7449,-5.744,-5.7592,-5.7626,-5.7637,-5.7743,-5.7773,-5.7857,-5.7859,-5.7975,-5.8001,-5.8005,-5.8105,-5.8096,-5.8209,-5.8201,-5.8379,-5.8356,-5.8362,-5.8357,-5.8477,-5.8466,-5.8871,-5.8923,-5.8565,-5.8569,-5.8571,0,-5.7623,-5.7722,-5.7766,-5.7823,-5.7851,-5.7943,-5.7997,-5.7972,-5.8031,-5.8096,-5.8174,-5.8268,-5.8342,-5.8506,-5.8519,-5.8606,-5.8584,-5.872,-5.8596,-5.8603,-5.8585,-5.8579,-5.8589,-5.8744,-5.8748,-5.8751,-5.8754,0,-5.7933,-5.7925,-5.8004,-5.8083,-5.8149,-5.821,-5.8266,-5.8316,-5.8297,-5.8367,-5.8467,-5.8525,-5.864,-5.8736,-5.8818,-5.8845,-5.8798,-5.8793,-5.8825,-5.8835,-5.8834,-5.8836,-5.8428,-5.8783,-5.878,-5.8778,-5.8776,-5.8775,-5.816,-5.8245,-5.829,-5.838,-5.842,-5.8474,-5.8554,-5.8567,-5.865,-5.874,-5.8722,-5.8836,-5.8886,-5.8992,-5.9027,-5.9117,-5.9068,-5.9115,-5.9127,-5.9139,-5.9152,-5.8821,-5.9132,-5.9131,-5.9131,-5.913,-5.9129,0,-5.8467,-5.8493,-5.8577,-5.8656,-5.8728,-5.8677,-5.8737,-5.8801,-5.8901,-5.8951,-5.9026,-5.9143,-5.9236,-5.9258,-5.9348,-5.9416,-5.9396,-5.944,-5.9434,-5.9441,-5.9191,-5.9154,-5.9454,-5.9454,-5.9454,-5.9454,-5.9454,-5.9454,-5.8635,-5.8776,-5.8773,-5.8934,-5.896,-5.907,-5.9108,-5.9159,-5.9199,-5.9332,-5.9408,-5.9421,-5.9461,-5.9554,-5.9638,-5.9642,-5.9677,-5.973,-5.9726,-5.9491,-5.9459,-5.9428,-5.9392,-5.9738,-5.9739,-5.9968,-5.997,-5.9972]},{"header":{"parameterUnit":"m.s-1","parameterCategory":1,"la1":30.2991,"la2":30.254,"lo1":-89.0895,"lo2":-89.0444,"dy":0.0017,"dx":0.0017,"nx":28,"ny":28,"refTime":"2025-12-16T03:00:00:Z","depth":0,"parameterNumber":3,"parameterNumberName":"V-component_of_WINDS"},"data":[0,0,0,0,0,0,0,0,0,0,0,0,0,0,0,0,0,0,0,0,0,0,0,0,0,0,0,0,0,0,0,0,0,0,0,0,0,0,0,0,0,0,0,0,0,0,0,0,0,0,0,0,0,0,0,0,0,0,-0.3332,-0.3331,0,-0.3249,-0.3248,-0.3247,-0.3213,-0.3213,-0.3213,-0.3213,-0.3128,-0.3126,-0.3123,0,0,0,0,0,0,0,0,0,0,0,0,0,-0.3456,-0.3454,-0.3332,-0.3331,-0.333,-0.3249,-0.3248,-0.3247,-0.3213,-0.3213,-0.3213,-0.3213,-0.3129,-0.3126,-0.3123,0,0,0,0,0,0,0,0,0,0,0,0,0,-0.3391,-0.3453,-0.3332,-0.3303,-0.33,-0.325,-0.3248,-0.3247,-0.3213,-0.3213,-0.3213,-0.3213,-0.313,-0.3126,-0.3123,-0.3095,0,0,-0.3112,-0.311,0,0,0,0,0,0,0,0,-0.3395,-0.3386,-0.3308,-0.3305,-0.3301,-0.3242,-0.3261,-0.3196,-0.3213,-0.3246,-0.3213,-0.3214,-0.3166,-0.3159,-0.3143,-0.3091,-0.3088,-0.3111,-0.3109,-0.3108,-0.3106,0,0,0,0,0,0,0,-0.3399,-0.339,-0.3299,-0.3307,-0.3303,-0.3293,-0.3284,-0.3248,-0.3205,-0.3243,-0.324,-0.3231,-0.3164,-0.3147,-0.3141,-0.3086,-0.3111,-0.3108,-0.3106,-0.3104,-0.3004,-0.3003,0,0,0,0,0,0,-0.3409,-0.3394,-0.3302,-0.3297,-0.3349,-0.329,-0.328,-0.326,-0.3206,-0.3197,-0.3231,-0.323,-0.3153,-0.3145,-0.3138,-0.3099,-0.3108,-0.3104,-0.3102,-0.3004,-0.3004,-0.3003,0,0,0,0,0,0,-0.3412,-0.3401,-0.3305,-0.3344,-0.3331,-0.3288,-0.3266,-0.3259,-0.3242,-0.3196,-0.3188,-0.3221,-0.3153,-0.3143,-0.3105,-0.3096,-0.3102,-0.3099,-0.3005,-0.3004,-0.3004,-0.3025,0,0,0,0,0,0,-0.3415,-0.3402,-0.3393,-0.3344,-0.3329,-0.3275,-0.3265,-0.3257,-0.3236,-0.3233,-0.3186,-0.3178,-0.3152,-0.3111,-0.3102,-0.3091,-0.3096,-0.3006,-0.3005,-0.3004,-0.3025,-0.3025,-0.3025,0,0,0,0,0,-0.342,-0.3403,-0.3392,-0.3381,-0.3317,-0.3275,-0.3266,-0.3237,-0.3235,-0.3224,-0.3194,-0.3179,-0.3099,-0.3107,-0.3097,-0.3085,-0.3006,-0.3005,-0.3004,-0.3025,-0.3025,-0.3025,0,0,0,0,0,0,-0.3452,-0.3396,-0.3384,-0.3351,-0.3318,-0.3269,-0.3255,-0.3239,-0.3206,-0.3205,-0.317,-0.3159,-0.3124,-0.3101,-0.3111,-0.3053,-0.3051,-0.3048,-0.307,-0.307,-0.307,-0.3076,-0.3093,0,0,0,0,0,-0.3454,-0.3426,-0.3379,-0.3354,-0.3338,-0.3299,-0.328,-0.326,-0.3224,-0.321,-0.3178,-0.3144,-0.311,-0.3089,-0.3056,-0.3021,-0.3008,-0.3007,-0.3007,-0.3008,-0.3005,-0.2981,-0.298,-0.3,-0.3,-0.3,0,0,-0.3461,-0.3427,-0.3411,-0.3359,-0.3331,-0.3301,-0.3288,-0.3258,-0.3234,-0.3206,-0.3168,-0.3142,-0.3101,-0.3064,-0.3046,-0.3044,-0.2996,-0.3006,-0.3007,-0.3004,-0.298,-0.2978,-0.2977,-0.2999,-0.2999,-0.2999,0,0,-0.3456,-0.3429,-0.3403,-0.3375,-0.3332,-0.3306,-0.33,-0.3253,-0.3235,-0.3196,-0.3173,-0.3144,-0.3088,-0.3058,-0.3036,-0.3016,-0.3,-0.3006,-0.3007,-0.2984,-0.2983,-0.2981,-0.2972,-0.2969,-0.3004,-0.3004,-0.3004,0,-0.347,-0.3424,-0.3393,-0.3362,-0.3339,-0.331,-0.3283,-0.3257,-0.3206,-0.319,-0.3187,-0.3113,-0.3084,-0.3038,-0.3033,-0.3016,-0.3006,-0.3012,-0.2986,-0.2984,-0.2982,-0.2972,-0.2969,-0.3005,-0.3005,-0.3005,-0.3005,0,-0.3441,-0.341,-0.3394,-0.3344,-0.3319,-0.3291,-0.3253,-0.3231,-0.3212,-0.3185,-0.3144,-0.3107,-0.3064,-0.3052,-0.3034,-0.3002,-0.3001,-0.2993,-0.2989,-0.2981,-0.2972,-0.2968,-0.3006,-0.3006,-0.3006,-0.3005,0,0,-0.3457,-0.3387,-0.3382,-0.3357,-0.3306,-0.3281,-0.3249,-0.3207,-0.3188,-0.3152,-0.3124,-0.3075,-0.3065,-0.304,-0.3018,-0.2998,-0.2981,-0.2992,-0.299,-0.2989,-0.294,-0.2946,-0.2943,-0.297,-0.2969,-0.2969,-0.2943,0,-0.3445,-0.3388,-0.3357,-0.3313,-0.3281,-0.3252,-0.3224,-0.3189,-0.3162,-0.313,-0.31,-0.3065,-0.3057,-0.3041,-0.302,-0.2988,-0.2971,-0.2989,-0.2941,-0.294,-0.2952,-0.2938,-0.2945,-0.2923,-0.294,-0.2939,-0.2938,0,-0.3424,-0.3388,-0.334,-0.3289,-0.3275,-0.3251,-0.3207,-0.3178,-0.3136,-0.3117,-0.3087,-0.3064,-0.3028,-0.3026,-0.2974,-0.2988,-0.2966,-0.2946,-0.2945,-0.2939,-0.2939,-0.2931,-0.2916,-0.2912,-0.2933,-0.2933,-0.2934,0,-0.3438,-0.3377,-0.334,-0.332,-0.326,-0.3243,-0.3217,-0.3176,-0.3151,-0.3112,-0.3095,-0.3053,-0.303,-0.2997,-0.2963,-0.2966,-0.2913,-0.291,-0.2895,-0.2896,-0.2886,-0.2887,-0.2866,-0.2873,-0.2873,-0.2873,-0.2874,0,-0.3428,-0.3399,-0.3345,-0.3322,-0.3288,-0.3251,-0.3218,-0.319,-0.3152,-0.3121,-0.3093,-0.3065,-0.3022,-0.2987,-0.296,-0.2919,-0.2909,-0.2892,-0.2885,-0.2894,-0.2896,-0.2879,-0.2879,-0.2872,-0.2873,-0.2873,-0.2873,0,-0.3439,-0.3401,-0.3358,-0.3304,-0.3289,-0.3266,-0.3219,-0.3194,-0.3165,-0.3126,-0.3115,-0.3068,-0.3026,-0.2988,-0.2933,-0.2914,-0.2871,-0.2864,-0.2886,-0.2882,-0.2868,-0.2869,-0.2835,-0.2828,-0.2842,-0.2842,-0.2842,0,-0.3434,-0.3411,-0.3353,-0.3331,-0.3305,-0.3269,-0.3243,-0.3204,-0.3178,-0.3125,-0.3106,-0.3062,-0.3024,-0.2957,-0.2918,-0.2874,-0.2864,-0.2854,-0.2857,-0.2866,-0.2861,-0.2862,-0.2859,-0.2855,-0.2855,-0.2855,-0.2855,0,-0.343,-0.3411,-0.3375,-0.333,-0.3299,-0.3263,-0.3225,-0.3208,-0.3162,-0.3133,-0.3089,-0.3059,-0.3001,-0.2956,-0.2907,-0.2878,-0.2858,-0.2854,-0.2848,-0.2857,-0.287,-0.286,-0.2885,-0.2855,-0.2855,-0.2855,-0.2855,-0.2855,-0.3432,-0.3408,-0.3363,-0.3322,-0.3289,-0.3253,-0.3226,-0.3192,-0.3155,-0.3104,-0.3083,-0.3037,-0.2991,-0.2923,-0.2895,-0.2857,-0.2853,-0.2845,-0.2843,-0.2841,-0.2842,-0.2876,-0.2848,-0.2848,-0.2848,-0.2848,-0.2848,0,-0.3424,-0.3392,-0.3355,-0.3302,-0.3269,-0.3252,-0.3208,-0.3181,-0.3141,-0.31,-0.3063,-0.301,-0.2965,-0.2921,-0.2873,-0.2851,-0.284,-0.284,-0.2841,-0.2834,-0.2849,-0.2858,-0.2849,-0.2849,-0.2849,-0.2849,-0.2849,-0.2849,-0.3416,-0.3375,-0.335,-0.3291,-0.3259,-0.3214,-0.319,-0.3156,-0.3123,-0.3065,-0.3027,-0.2998,-0.2955,-0.2903,-0.286,-0.2848,-0.2831,-0.2832,-0.2818,-0.2833,-0.2833,-0.2833,-0.2842,-0.2829,-0.2829,-0.2805,-0.2805,-0.2805]}]]